Location: The Saddle
(36.8333°N, 80.3417°W)
Time: 02:28:33
(UTC-04:00)

Vanguard 3 - Pass Details

Date: 25 May 2026
Orbit: 507 x 3204 km, 33.3° (Epoch: 9 June)

Event Time Altitude Azimuth Distance (km) Brightness Sun altitude
Rises 16:12:42 0° 279° (W) 6,422 12.3 49.2°
Reaches altitude 10° 16:16:36 10° 277° (W) 5,648 12.3 48.4°
Maximum altitude 16:34:57 67° 200° (SSW) 3,375 11.2 44.8°
Drops below altitude 10° 16:52:46 10° 123° (ESE) 5,494 11.1 41.2°
Sets 16:56:30 0° 121° (ESE) 6,246 11.3 40.5°
